Погода в Новобогдановке

Украина / Запорожская область     47°04′46″N   35°19′36″E
темп.,
°C
ветер,
м/с
пор.,
м/с
влажн.,
%
обл.,
%
осадки,
мм/ч
давл.,
гПа
погр.,
м
13 апреля, вт
вт1300:00+7юв3592100 0.0 1022106
03:00+6ююв239418 0.0 102250
06:00+6юв229597 0.0 102227
09:00+10ююв347735 0.0 1022499
12:00+14ююв335980 0.1 10211317
15:00+13ю446286 0.1 10211011
18:00+12ююв4570100 0.1 1020386
21:00+9юв4685100 0.1 1021288
14 апреля, ср
ср1400:00+7юв349486 0.0 102093
03:00+6ююв229477 0.0 101917
06:00+6юв2393100 0.0 101937
09:00+10юв4567100 0.0 1018499
12:00+14ююв564987 0.0 10171198
15:00+15ююв56484 0.0 10161268
18:00+13ююв6661100 0.0 1015887
21:00+9юв4883100 0.0 1016302
15 апреля, чт
чт1500:00+8ююв4882100 0.0 1015333
03:00+9юв4988100 0.1 1014410
06:00+8юв4886100 0.0 1014306
09:00+9ююв3592100 1.8 1014270
12:00+11ю6983100 0.7 1014903
15:00+11юз697797 0.9 1014676
18:00+12юз686987 0.1 10141181
21:00+7юз49853 0.1 1016297
16 апреля, пт
пт1600:00+5юз49935 0.0 1016236
03:00+5ююз388650 0.0 1016179
06:00+6ююз3674100 0.0 1016180
09:00+10ююз57665 0.0 1016871
12:00+12ююз6754100 0.2 10161828
15:00+12ююз785797 0.9 10161382
18:00+11ююз676764 2.1 1017921
21:00+7ююз35795 2.7 101872
17 апреля, сб
сб1700:00+5зюз34795 0.0 101965
03:00+4зюз33835 0.0 101934
06:00+3ююз33893 0.0 102036
09:00+9ююз45665 0.0 1020504
12:00+14ююз555070 0.0 10201684
15:00+13ю6550100 0.0 10201479
18:00+12ююв466076 0.0 1020399
21:00+8ююв366942 0.0 1021130